Weather History for Defuniak Springs, Defuniak Sp, FL

Change the Weather History Date:

Sunday, May 4, 2014

  Actual Average (KCEW) Record (KCEW)
Temperature  
Mean Temperature 70 °F -  
Max Temperature 85 °F 82 °F 93 °F (1952)
Min Temperature 56 °F 56 °F 39 °F (2004)
Cooling Degree Days 6    
Growing Degree Days 20 (Base 50)    
Moisture  
Dew Point 53 °F    
Average Humidity 59    
Maximum Humidity 93    
Minimum Humidity 26    
Precipitation  
Precipitation 0.00 in - - ()
Sea Level Pressure  
Sea Level Pressure 30.10 in    
Wind  
Wind Speed 4 mph (West)    
Max Wind Speed 8 mph    
Max Gust Speed -    
Visibility 10 miles    
Events      
Averages and records for this station are not official NWS values.
T = Trace of Precipitation, MM = Missing Value Source: NWS Daily Summary

Daily Weather History Graph

Daily Weather History Graph

Search for Another Location

Airport:

Trip Planner

Search our weather history database for the weather conditions in past years. The results will help you decide how hot, cold, wet, or windy it might be!

Date:

Astronomy

May. 04, 2014 Rise Set
Actual Time 5:58 AM CDT 7:25 PM CDT
Civil Twilight 5:32 AM CDT 7:50 PM CDT
Nautical Twilight 5:01 AM CDT 8:21 PM CDT
Astronomical Twilight 4:29 AM CDT 8:53 PM CDT
Moon 10:22 AM CDT (5/4) No Moon Set
Length of Visible Light 14h 18m
Length of Day
13h 27m
Waxing Crescent, 28% of the Moon is Illuminated
May 4
Waxing Crescent
May 6
First Quarter
May 14
Full
May 21
Last Quarter
May 28
New

Hourly Weather History & Observations

Time (CDT) Temp. Heat Index Dew Point Humidity Pressure Visibility Wind Dir Wind Speed Gust Speed Precip Events Conditions
12:15 AM 60.3 °F - 53.2 °F 78% 30.10 in 10.0 mi WSW 3.5 mph - N/A   Clear
12:35 AM 61.2 °F - 51.4 °F 70% 30.10 in 10.0 mi West 3.5 mph - N/A   Clear
12:55 AM 61.3 °F - 51.1 °F 69% 30.10 in 10.0 mi West 4.6 mph - N/A   Clear
1:15 AM 61.3 °F - 51.1 °F 69% 30.10 in 10.0 mi West 4.6 mph - N/A   Clear
1:35 AM 61.7 °F - 52.2 °F 71% 30.10 in 10.0 mi West 4.6 mph - N/A   Clear
1:55 AM 62.2 °F - 53.1 °F 72% 30.09 in 10.0 mi West 3.5 mph - N/A   Clear
2:15 AM 61.7 °F - 53.6 °F 75% 30.09 in 10.0 mi West 4.6 mph - N/A   Clear
2:35 AM 61.5 °F - 54.5 °F 78% 30.09 in 10.0 mi West 5.8 mph - N/A   Clear
2:55 AM 62.4 °F - 56.3 °F 80% 30.09 in 10.0 mi WNW 3.5 mph - N/A   Clear
3:15 AM 61.0 °F - 55.6 °F 82% 30.09 in 10.0 mi Calm Calm - N/A   Clear
3:35 AM 60.3 °F - 54.9 °F 82% 30.09 in 10.0 mi Calm Calm - N/A   Clear
3:55 AM 57.6 °F - 53.4 °F 86% 30.09 in 10.0 mi NW 3.5 mph - N/A   Clear
4:15 AM 56.5 °F - 52.7 °F 87% 30.09 in 10.0 mi NW 3.5 mph - N/A   Clear
4:35 AM 57.2 °F - 53.4 °F 87% 30.10 in 10.0 mi Calm Calm - N/A   Clear
4:55 AM 57.6 °F - 54.5 °F 90% 30.10 in 10.0 mi Calm Calm - N/A   Clear
5:15 AM 57.4 °F - 54.5 °F 90% 30.11 in 10.0 mi Calm Calm - N/A   Clear
5:35 AM 57.7 °F - 55.4 °F 92% 30.11 in 10.0 mi Calm Calm - N/A   Clear
5:55 AM 58.8 °F - 56.3 °F 91% 30.12 in 10.0 mi Calm Calm - N/A   Clear
6:15 AM 58.8 °F - 56.5 °F 92% 30.13 in 10.0 mi Calm Calm - N/A   Clear
6:35 AM 59.7 °F - 57.4 °F 92% 30.13 in 10.0 mi WNW 3.5 mph - N/A   Clear
6:55 AM 61.7 °F - 59.5 °F 93% 30.13 in 10.0 mi Calm Calm - N/A   Clear
7:15 AM 63.3 °F - 61.0 °F 92% 30.14 in 10.0 mi West 3.5 mph - N/A   Clear
7:35 AM 65.1 °F - 62.1 °F 90% 30.14 in 10.0 mi West 3.5 mph - N/A   Clear
7:55 AM 67.5 °F - 62.2 °F 83% 30.14 in 10.0 mi NW 6.9 mph - N/A   Clear
8:15 AM 68.9 °F - 61.5 °F 77% 30.14 in 10.0 mi NW 6.9 mph - N/A   Clear
8:35 AM 69.8 °F - 60.3 °F 72% 30.14 in 10.0 mi NW 6.9 mph - N/A   Clear
8:55 AM 71.1 °F - 59.2 °F 66% 30.15 in 10.0 mi NW 4.6 mph - N/A   Clear
9:15 AM 72.7 °F - 58.3 °F 60% 30.15 in 10.0 mi NNW 4.6 mph - N/A   Clear
9:35 AM 74.8 °F - 55.4 °F 51% 30.15 in 10.0 mi Calm Calm - N/A   Clear
9:55 AM 76.1 °F - 55.4 °F 49% 30.15 in 10.0 mi WNW 5.8 mph - N/A   Clear
10:15 AM 77.7 °F - 53.4 °F 43% 30.15 in 10.0 mi North 5.8 mph - N/A   Clear
10:35 AM 77.7 °F - 51.8 °F 40% 30.15 in 10.0 mi North 5.8 mph - N/A   Clear
10:55 AM 79.0 °F - 52.3 °F 39% 30.15 in 10.0 mi NW 5.8 mph - N/A   Clear
11:15 AM 79.2 °F - 51.1 °F 37% 30.14 in 10.0 mi NNW 6.9 mph - N/A   Clear
11:35 AM 80.2 °F - 52.7 °F 38% 30.14 in 10.0 mi ENE 4.6 mph - N/A   Clear
11:55 AM 81.3 °F - 51.6 °F 36% 30.13 in 10.0 mi ENE 3.5 mph - N/A   Clear
12:15 PM 81.9 °F - 51.8 °F 35% 30.13 in 10.0 mi East 4.6 mph - N/A   Clear
12:35 PM 82.4 °F - 52.0 °F 35% 30.12 in 10.0 mi East 3.5 mph - N/A   Clear
12:55 PM 82.8 °F - 51.3 °F 33% 30.11 in 10.0 mi North 3.5 mph - N/A   Clear
1:15 PM 83.3 °F - 51.1 °F 33% 30.10 in 10.0 mi ENE 5.8 mph - N/A   Clear
1:35 PM 83.5 °F - 50.2 °F 31% 30.10 in 10.0 mi Calm Calm - N/A   Clear
1:55 PM 83.7 °F - 48.0 °F 29% 30.09 in 10.0 mi NW 6.9 mph - N/A   Clear
2:15 PM 84.6 °F - 47.8 °F 28% 30.08 in 10.0 mi West 5.8 mph - N/A   Clear
2:35 PM 84.9 °F - 48.0 °F 28% 30.07 in 10.0 mi WNW 6.9 mph - N/A   Clear
2:55 PM 85.1 °F - 47.1 °F 27% 30.07 in 10.0 mi NW 3.5 mph - N/A   Clear
3:15 PM 85.1 °F - 47.1 °F 27% 30.06 in 10.0 mi North 3.5 mph - N/A   Clear
3:35 PM 85.5 °F - 47.1 °F 26% 30.05 in 10.0 mi North 8.1 mph - N/A   Clear
3:55 PM 85.8 °F - 46.9 °F 26% 30.05 in 10.0 mi NE 4.6 mph - N/A   Clear
4:15 PM 85.5 °F - 47.1 °F 26% 30.05 in 10.0 mi North 6.9 mph - N/A   Clear
4:35 PM 84.9 °F - 46.6 °F 26% 30.05 in 10.0 mi Calm Calm - N/A   Clear
4:55 PM 83.1 °F 82.4 °F 56.1 °F 40% 30.05 in 10.0 mi SW 6.9 mph - N/A   Clear
5:15 PM 82.0 °F 81.6 °F 56.5 °F 41% 30.05 in 10.0 mi SSW 6.9 mph - N/A   Clear
5:35 PM 80.6 °F 80.4 °F 54.5 °F 40% 30.05 in 10.0 mi SW 8.1 mph - N/A   Clear
5:55 PM 79.0 °F - 52.7 °F 40% 30.05 in 10.0 mi SW 6.9 mph - N/A   Clear
6:15 PM 78.3 °F - 52.0 °F 40% 30.05 in 10.0 mi SW 5.8 mph - N/A   Clear
6:35 PM 77.2 °F - 52.0 °F 41% 30.05 in 10.0 mi SSW 4.6 mph - N/A   Clear
6:55 PM 75.7 °F - 51.3 °F 42% 30.05 in 10.0 mi SSW 4.6 mph - N/A   Clear
7:15 PM 73.4 °F - 51.8 °F 47% 30.06 in 10.0 mi SSW 4.6 mph - N/A   Clear
7:35 PM 72.3 °F - 50.4 °F 46% 30.06 in 10.0 mi SSW 3.5 mph - N/A   Clear
7:55 PM 70.3 °F - 50.7 °F 50% 30.07 in 10.0 mi SSW 4.6 mph - N/A   Clear
8:15 PM 69.1 °F - 51.1 °F 53% 30.08 in 10.0 mi SSW 3.5 mph - N/A   Clear
8:35 PM 67.6 °F - 52.2 °F 58% 30.08 in 10.0 mi SSW 3.5 mph - N/A   Clear
8:50 PM 67.5 °F - 52.3 °F 58% 30.08 in 10.0 mi Calm Calm - N/A   Clear
9:15 PM 64.0 °F - 54.9 °F 72% 30.09 in 10.0 mi SSW 3.5 mph - N/A   Clear
9:35 PM 64.8 °F - 54.0 °F 68% 30.09 in 10.0 mi SSW 3.5 mph - N/A   Clear
9:55 PM 64.8 °F - 54.5 °F 69% 30.10 in 10.0 mi SSW 3.5 mph - N/A   Clear
10:15 PM 62.8 °F - 55.2 °F 76% 30.10 in 10.0 mi SSW 3.5 mph - N/A   Clear
10:35 PM 63.5 °F - 55.2 °F 74% 30.10 in 10.0 mi SW 3.5 mph - N/A   Clear
10:55 PM 63.0 °F - 55.4 °F 76% 30.10 in 10.0 mi SSW 3.5 mph - N/A   Clear
11:10 PM 63.1 °F - 55.6 °F 76% 30.10 in 10.0 mi SW 3.5 mph - N/A   Clear
11:35 PM 63.9 °F - 56.1 °F 76% 30.10 in 10.0 mi Calm Calm - N/A   Clear
11:55 PM 62.2 °F - 56.3 °F 81% 30.10 in 10.0 mi WSW 3.5 mph - N/A   Clear